EW2672 Weather Reports


Display with metric or nautical units.
time (UTC)temp
F
wind
direction
speed
MPH
gust
MPH
rain 1hr
in
rain 24hr
in
rain mn
in
humidity
%
barometer
mb
20260504234300 80 161 3.0 12.0 0.00 0.00 0.00 61 1008.7
20260504233756 80 166 2.0 10.0 0.00 0.00 0.00 61 1008.8
20260504233254 80 168 3.0 14.0 0.00 0.00 0.00 61 1008.8
20260504232752 80 187 2.0 14.0 0.00 0.00 0.00 60 1009.0
20260504232248 80 187 1.0 11.0 0.00 0.00 0.00 61 1009.0
20260504231746 80 172 2.0 11.0 0.00 0.00 0.00 61 1009.0
20260504231244 81 178 3.0 11.0 0.00 0.00 0.00 60 1008.9
20260504230742 80 175 2.0 11.0 0.00 0.00 0.00 61 1008.9
20260504230238 81 167 2.0 11.0 0.00 0.00 0.00 60 1009.1
20260504225736 81 188 3.0 11.0 0.00 0.00 0.00 59 1009.1
20260504225234 81 186 4.0 11.0 0.00 0.00 0.00 58 1009.1
20260504224732 81 167 3.0 12.0 0.00 0.00 0.00 59 1009.2
20260504224228 81 189 4.0 8.0 0.00 0.00 0.00 59 1009.2
20260504223726 81 185 2.0 10.0 0.00 0.00 0.00 59 1009.2
20260504223224 81 175 4.0 12.0 0.00 0.00 0.00 58 1009.4
20260504222722 81 180 3.0 11.0 0.00 0.00 0.00 59 1009.4
20260504222218 82 191 2.0 11.0 0.00 0.00 0.00 58 1009.4
20260504221716 82 180 2.0 7.0 0.00 0.00 0.00 58 1009.3
20260504221214 82 0.0 9.0 0.00 0.00 0.00 59 1009.5
20260504220712 81 168 1.0 10.0 0.00 0.00 0.00 59 1009.5
20260504220208 81 170 2.0 13.0 0.00 0.00 0.00 59 1009.5
20260504215706 82 145 3.0 13.0 0.00 0.00 0.00 59 1009.5
20260504215204 81 192 1.0 8.0 0.00 0.00 0.00 59 1009.7
20260504214702 82 183 3.0 10.0 0.00 0.00 0.00 59 1009.7
20260504214158 82 187 3.0 10.0 0.00 0.00 0.00 59 1009.7
20260504213656 81 0.0 10.0 0.00 0.00 0.00 61 1009.6
20260504213154 81 182 3.0 12.0 0.00 0.00 0.00 60 1009.7
20260504212652 82 166 2.0 9.0 0.00 0.00 0.00 61 1010.0
20260504212148 81 205 1.0 11.0 0.00 0.00 0.00 62 1010.1
20260504211646 81 173 4.0 11.0 0.00 0.00 0.00 61 1010.2
20260504211144 81 192 2.0 10.0 0.00 0.00 0.00 60 1010.4
20260504210642 81 174 3.0 8.0 0.00 0.00 0.00 61 1010.4
20260504210138 80 176 2.0 12.0 0.00 0.00 0.00 60 1010.6
20260504205636 81 178 2.0 12.0 0.00 0.00 0.00 59 1010.7
20260504205132 81 165 2.0 11.0 0.00 0.00 0.00 61 1010.7
20260504204630 81 132 4.0 11.0 0.00 0.00 0.00 59 1010.8
20260504204128 81 183 1.0 9.0 0.00 0.00 0.00 60 1010.9
20260504203626 80 200 2.0 11.0 0.00 0.00 0.00 63 1010.9
20260504203122 80 185 3.0 12.0 0.00 0.00 0.00 61 1010.9
20260504202620 80 145 1.0 12.0 0.00 0.00 0.00 61 1011.0
20260504202118 80 189 2.0 9.0 0.00 0.00 0.00 60 1011.2
20260504201616 80 176 2.0 6.0 0.00 0.00 0.00 60 1011.2
20260504201112 80 184 2.0 8.0 0.00 0.00 0.00 61 1011.3
20260504200610 80 191 2.0 10.0 0.00 0.00 0.00 60 1011.4
20260504200108 80 179 3.0 10.0 0.00 0.00 0.00 61 1011.6
20260504195606 80 168 1.0 9.0 0.00 0.00 0.00 62 1011.5
20260504195102 80 182 3.0 10.0 0.00 0.00 0.00 61 1011.8
20260504194600 80 189 2.0 10.0 0.00 0.00 0.00 61 1012.0
20260504194058 80 174 2.0 9.0 0.00 0.00 0.00 61 1012.0
20260504193556 79 151 1.0 9.0 0.00 0.00 0.00 61 1012.1
20260504193056 80 194 2.0 7.0 0.00 0.00 0.00 61 1012.0
20260504192551 80 166 2.0 8.0 0.00 0.00 0.00 61 1012.2
20260504192049 79 191 2.0 10.0 0.00 0.00 0.00 64 1012.3
20260504191547 79 189 2.0 10.0 0.00 0.00 0.00 62 1012.4
20260504191044 78 130 1.0 10.0 0.00 0.00 0.00 65 1012.4
20260504190541 78 173 3.0 7.0 0.00 0.00 0.00 63 1012.5
20260504190039 78 186 3.0 9.0 0.00 0.00 0.00 63 1012.6
20260504185537 78 179 3.0 11.0 0.00 0.00 0.00 63 1012.7
20260504185034 78 191 2.0 11.0 0.00 0.00 0.00 63 1012.6
20260504184531 78 177 1.0 10.0 0.00 0.00 0.00 64 1012.7
20260504184029 78 190 1.0 8.0 0.00 0.00 0.00 65 1012.7
20260504183426 77 183 4.0 9.0 0.00 0.00 0.00 64 1012.7
20260504182923 77 177 3.0 10.0 0.00 0.00 0.00 64 1012.9
20260504182421 76 178 2.0 11.0 0.00 0.00 0.00 65 1013.0
20260504181919 76 176 3.0 11.0 0.00 0.00 0.00 65 1013.1
20260504181416 76 163 2.0 12.0 0.00 0.00 0.00 66 1013.1
20260504180913 76 178 3.0 12.0 0.00 0.00 0.00 65 1013.3
20260504180411 76 190 1.0 6.0 0.00 0.00 0.00 67 1013.2
20260504175909 75 161 1.0 7.0 0.00 0.00 0.00 67 1013.4
20260504175406 75 185 1.0 6.0 0.00 0.00 0.00 67 1013.6
20260504174903 75 183 2.0 6.0 0.00 0.00 0.00 67 1013.4
20260504174401 75 169 2.0 8.0 0.00 0.00 0.00 67 1013.7
20260504173857 75 232 1.0 8.0 0.00 0.00 0.00 67 1013.8
20260504173356 75 154 2.0 8.0 0.00 0.00 0.00 66 1013.8
20260504172853 75 172 2.0 14.0 0.00 0.00 0.00 66 1014.0
20260504172351 75 191 2.0 14.0 0.00 0.00 0.00 67 1014.0
20260504171847 75 173 3.0 8.0 0.00 0.00 0.00 66 1014.2
20260504171345 75 257 2.0 8.0 0.00 0.00 0.00 66 1014.3
20260504170843 75 155 1.0 11.0 0.00 0.00 0.00 67 1014.4
20260504170340 75 180 3.0 13.0 0.00 0.00 0.00 68 1014.5
20260504160310 72 170 3.0 11.0 0.00 0.00 0.00 70 1014.5
20260504150740 70 169 3.0 12.0 0.00 0.00 0.00 72 1015.0
20260504150239 69 181 3.0 9.0 0.00 0.00 0.00 73 1014.9
20260504141214 66 178 1.0 10.0 0.00 0.00 0.00 76 1015.0
20260504140710 66 189 5.0 10.0 0.00 0.00 0.00 76 1015.0
20260504140209 66 188 3.0 12.0 0.00 0.00 0.00 76 1015.0
20260504130640 62 196 1.0 7.0 0.00 0.00 0.00 81 1015.1
20260504130138 61 172 1.0 5.0 0.00 0.00 0.00 82 1015.0
20260504120108 59 0.0 4.0 0.00 0.00 0.00 83 1014.3
20260504110540 60 0.0 0.0 0.00 0.00 0.00 81 1014.5
20260504100510 61 222 1.0 5.0 0.00 0.00 0.00 78 1014.9
20260504081916 63 170 1.0 5.0 0.00 0.00 0.00 76 1015.0
20260504081414 63 0.0 5.0 0.00 0.00 0.00 75 1015.1
20260504080911 63 192 1.0 7.0 0.00 0.00 0.00 75 1015.3
20260504080408 63 200 1.0 5.0 0.00 0.00 0.00 75 1015.2
20260504070338 63 195 1.0 5.0 0.00 0.00 0.00 73 1016.3
20260504050740 65 190 1.0 6.0 0.00 0.00 0.00 65 1017.4
20260504050238 65 188 1.0 6.0 0.00 0.00 0.00 65 1017.4
20260504045735 65 0.0 5.0 0.00 0.00 0.00 65 1017.3
20260504045231 65 198 1.0 5.0 0.00 0.00 0.00 64 1017.3
20260504044730 65 0.0 5.0 0.00 0.00 0.00 64 1017.3
20260504044227 65 0.0 7.0 0.00 0.00 0.00 64 1017.4
20260504043725 65 198 2.0 7.0 0.00 0.00 0.00 65 1017.5
20260504043221 64 185 1.0 4.0 0.00 0.00 0.00 64 1017.6
20260504042719 64 0.0 5.0 0.00 0.00 0.00 65 1017.6
20260504042217 63 0.0 5.0 0.00 0.00 0.00 67 1017.5
20260504041715 62 0.0 0.0 0.00 0.00 0.00 68 1017.5
20260504041211 62 0.0 0.0 0.00 0.00 0.00 69 1017.6
20260504040709 61 0.0 0.0 0.00 0.00 0.00 68 1017.6
20260504040207 61 0.0 0.0 0.00 0.00 0.00 67 1017.5
20260504035704 62 0.0 0.0 0.00 0.00 0.00 66 1017.6
20260504035201 62 0.0 0.0 0.00 0.00 0.00 67 1017.7
20260504034659 62 0.0 0.0 0.00 0.00 0.00 67 1017.8
20260504034155 62 0.0 0.0 0.00 0.00 0.00 65 1017.6
20260504033654 63 0.0 0.0 0.00 0.00 0.00 65 1017.7
20260504033151 63 0.0 0.0 0.00 0.00 0.00 66 1017.7
20260504032649 63 0.0 0.0 0.00 0.00 0.00 64 1017.6
20260504032145 63 0.0 0.0 0.00 0.00 0.00 62 1017.5
20260504031644 64 0.0 0.0 0.00 0.00 0.00 62 1017.6
20260504031141 64 0.0 0.0 0.00 0.00 0.00 61 1017.7
20260504030639 64 0.0 0.0 0.00 0.00 0.00 60 1017.7
20260504030135 64 0.0 0.0 0.00 0.00 0.00 61 1017.6
20260504025634 64 0.0 0.0 0.00 0.00 0.00 60 1017.7
20260504025131 65 0.0 0.0 0.00 0.00 0.00 60 1017.6
20260504024629 65 0.0 0.0 0.00 0.00 0.00 61 1017.5
20260504024125 65 0.0 0.0 0.00 0.00 0.00 60 1017.7
20260504023624 65 0.0 0.0 0.00 0.00 0.00 58 1017.7
20260504023121 65 0.0 0.0 0.00 0.00 0.00 58 1017.6
20260504022619 65 0.0 0.0 0.00 0.00 0.00 58 1017.5
20260504022115 66 0.0 0.0 0.00 0.00 0.00 58 1017.4
20260504021613 66 0.0 0.0 0.00 0.00 0.00 57 1017.5
20260504021111 66 0.0 0.0 0.00 0.00 0.00 56 1017.5
20260504020608 66 0.0 0.0 0.00 0.00 0.00 55 1017.5
20260504020105 67 0.0 0.0 0.00 0.00 0.00 56 1017.5
20260504015603 67 0.0 0.0 0.00 0.00 0.00 55 1017.3
20260504015101 68 0.0 0.0 0.00 0.00 0.00 54 1017.2
20260504014558 68 0.0 0.0 0.00 0.00 0.00 54 1017.2
20260504014055 68 0.0 0.0 0.00 0.00 0.00 53 1017.1
20260504013553 69 0.0 0.0 0.00 0.00 0.00 52 1017.0
20260504013051 69 0.0 0.0 0.00 0.00 0.00 52 1017.0
20260504012548 70 0.0 0.0 0.00 0.00 0.00 51 1016.9
20260504012045 70 0.0 0.0 0.00 0.00 0.00 51 1016.9
20260504011543 71 0.0 0.0 0.00 0.00 0.00 49 1017.0
20260504011039 71 0.0 0.0 0.00 0.00 0.00 49 1017.1
20260504010538 71 0.0 0.0 0.00 0.00 0.00 48 1017.1
20260504010035 72 0.0 0.0 0.00 0.00 0.00 49 1017.0
20260504005533 72 0.0 3.0 0.00 0.00 0.00 47 1016.9
20260504005029 72 0.0 3.0 0.00 0.00 0.00 47 1017.0
20260504004528 72 0.0 2.0 0.00 0.00 0.00 46 1017.0
20260504004025 73 0.0 3.0 0.00 0.00 0.00 46 1017.0
20260504003523 73 0.0 3.0 0.00 0.00 0.00 45 1017.0
20260504003019 73 0.0 5.0 0.00 0.00 0.00 45 1017.0
20260504002518 73 186 1.0 5.0 0.00 0.00 0.00 44 1017.2
20260504002015 74 0.0 4.0 0.00 0.00 0.00 45 1017.0
20260504001513 74 0.0 3.0 0.00 0.00 0.00 44 1017.1
20260504001009 74 0.0 3.0 0.00 0.00 0.00 44 1017.2
20260504000507 74 1.0 3.0 0.00 0.00 0.00 43 1017.3
20260504000005 74 0.0 4.0 0.00 0.00 0.00 43 1017.4
20260503235502 74 0.0 4.0 0.00 0.00 0.00 42 1017.5
20260503234959 74 0.0 3.0 0.00 0.00 0.00 42 1017.5